STARLINK-33796, 63515

Orbit data source: Space-Track

STARLINK-33796, 63515 is a payload satellite owned by SpaceX/Seattle (US) in LEO that was launched on Mon, 07 Apr 2025 UTC via an FALCON 9 launch vehicle from the Air Force Western Test Range (AFWTR). Payload-class satellites include a variety of spacecraft equipped with specific instruments for various scientific and technological missions. These include communications satellites like Starlink; space stations such as the ISS; scientific satellites like the Hubble; Earth observation satellites from companies like Planet Labs, Umbra, and HawkEye 360; GPS; miniature CubeSats for education and research; and military/defense satellites.

Loading next visibility...
Identifier
63515, 2025-071Y
Orbit
LEO
Country
Flag of USUS
Related business
Manufacturer
SpaceX/Seattle
Mission
Operational Commercial Communications
Bus & Motor
STARLINK V2MO, Unknown motor
Mass
575 kg wet, ~530 kg dry
Launch date (UTC)
2025-04-07 (1 year ago)
Launch vehicle
FALCON 9
Launch site
Air Force Western Test Range (AFWTR)
Object type
Payload
Rocket body
Debris
Shape & HBR
Box + 1 Pan, 17.7 m
Radar Cross Section
41.120 m², Large (>1 m²)

Expand to show TLE details & history
Last TLE update: 14 hours ago

TLE from 14 hours ago
0 STARLINK-33796
1 63515U 25071Y   26262.87645760  .00012035  00000-0  36682-3 0  9995
2 63515  53.1607 316.2874 0001004  59.2310 300.8791 15.34392847 82521
Epoch: 2026-09-19T21:02Z
TLE epoch observation values (Epoch: 2026-09-19T21:02:05.936Z)
Latitude
-0.00006°
Longitude
1.98392°
Altitude
463.273 km
Speed
7.636 km/s
True Right ascension
21h 05m 08s
True Declination
0° 00' 00"
Sunlit
Object was in full shadow at epoch
Visualization orbit readout
Latitude
Unknown
Longitude
Unknown
Altitude
Unknown
Speed
Unknown
Apparent Right ascension
Unknown
Apparent Declination
Unknown
Sunlit
N/A
Visualization observer readout
Local Sidereal Time
03:42:36
Azimuth
Unknown
Elevation
Unknown
Doppler factor
Unknown
Orbital elements
Apogee altitude
463.668 km
Perigee altitude
462.294 km
Semi-major axis
6,841.118 km
Eccentricity
0.0001
Inclination
53.1607°
RAAN
316.2874°
Arg. of periapsis
59.231°
True anomaly
300.86923°
Mean anomaly
300.8791°
Eccentric anomaly
300.87416°
Mean motion
3.83577 °/min
Orbital period
93.85 mins
BSTAR
0.00036682
Loading maneuver chart data...
Computing Atmospheric mass density...
Loading historical data...
Loading historical data...
Loading historical data...
Loading historical data...
Loading historical data...
Loading historical data...
Loading historical data...

Documentation

Showing up to 5 results
|